Weather Service Report


944 
ASUS46 KSEW 262310
RWRWA 

WASHINGTON REGIONAL WEATHER ROUNDUP
NATIONAL WEATHER SERVICE SEATTLE WA
400 PM PDT WED APR 26 2017

NOTE:"FAIR" INDICATES FEW OR NO CLOUDS BELOW 12,000 FEET WITH NO 
SIGNIFICANT WEATHER AND/OR OBSTRUCTIONS TO VISIBILITY.

WAZ507-509-555>559-270000-
SEATTLE, TACOMA, EVERETT, AND VICINITY
  
CITY           SKY/WX    TMP DP  RH WIND       PRES   REMARKS
EVERETT        RAIN      46  42  86 N6        29.87S FOG              
BOEING FIELD   PTSUNNY   53  45  74 NE9G16    29.86R                  
RENTON         LGT RAIN  53  46  77 N8        29.86R                  
SEATAC AIRPORT PTSUNNY   55  42  61 N9        29.86R                  
JBLM-MCCHORD   SUNNY     57  44  62 W21G29    29.87R                  
PUYALLUP         N/A     59  39  47 SW10G20   29.87S                  
BREMERTON      NOT AVBL                                               
JBLM-FT LEWIS  LGT RAIN  52  40  65 NW12        N/A                   
TACOMA NARROWS MOSUNNY   55  41  59 SW15G22   29.87R                  
$$
 
WAZ001-503-506-510-514-515-270000-
NORTH INTERIOR
  
CITY           SKY/WX    TMP DP  RH WIND       PRES   REMARKS
BELLINGHAM     MOSUNNY   56  42  59 S9        29.80F                  
FRIDAY HARBOR  SUNNY     57  39  51 SW17G29   29.83S                  
EASTSOUND      SUNNY     57  37  47 SW10G18   29.80S                  
PORT ANGELES   CLOUDY    50  42  74 NW13G23   29.86S                  
EDIZ HOOK      FAIR      53  43  68 W24       29.86S                  
PORT TOWNSEND  PTSUNNY   52  45  76 NW13G24   29.85S                  
NAS WHIDBEY    PTSUNNY   55  41  59 W21G29    29.88S                  
ARLINGTON      CLOUDY    52  37  58 CALM      29.89S                  
BURLINGTON     SUNNY     55  41  58 W12G24    29.83F                  
$$
 
WAZ020-022-039-040-504-511-512-270000-
SOUTHWEST INTERIOR
  
CITY           SKY/WX    TMP DP  RH WIND       PRES   REMARKS
SHELTON        LGT RAIN  50  44  80 W16G22    29.87S                  
OLYMPIA        MOSUNNY   55  41  59 W9        29.89R                  
CHEHALIS       FAIR      55  45  67 VRB7      29.92S                  
KELSO          CLOUDY    56  39  53 W16G26    29.95R                  
VANCOUVER      PTSUNNY   58  47  66 NE6       29.93S                  
SCAPPOOSE, OR  PTSUNNY   55  43  63 W12       29.94S                  
PORTLAND, OR   PTSUNNY   57  44  62 W9        29.94R                  
$$
 
WAZ021-516-517-270000-
WASHINGTON COAST
  
CITY           SKY/WX    TMP DP  RH WIND       PRES   REMARKS
FORKS          CLOUDY    51  40  65 W17       29.92S                  
HOQUIAM        SUNNY     53  42  66 W16       29.94S                  
ASTORIA, OR    PTSUNNY   53  43  68 W15       29.97F                  
$$
 
WAZ019-023-024-040-567>569-270000-
CASCADE MOUNTAINS AND COLUMBIA GORGE
  
CITY           SKY/WX    TMP DP  RH WIND       PRES   REMARKS
STAMPEDE PASS  CLOUDY    34  34 100 VRB7      29.78R FOG              
TROUTDALE, OR  LGT RAIN  53  47  79 VRB3      29.94R                  
THE DALLES, OR CLOUDY    56  42  59 NW17      29.87R                  
$$

WAZ026-027-041>044-520-521-270000-
EAST SLOPES
  
CITY           SKY/WX    TMP DP  RH WIND       PRES   REMARKS
OMAK           MOSUNNY   65  29  25 W15       29.60S                  
WENATCHEE      MOSUNNY   61  27  27 NW15      29.67F                  
ELLENSBURG     MOSUNNY   54  34  46 NW26G35   29.74S                  
YAKIMA         MOSUNNY   63  33  32 W25G35    29.73F                  
SUNNYSIDE ARPT PTCLDY    62  39  42 W12       29.73F                  
$$

WAZ028-034-035-270000-
COLUMBIA BASIN
  
CITY           SKY/WX    TMP DP  RH WIND       PRES   REMARKS
EPHRATA        MOSUNNY   62  31  31 SW10      29.67F                  
MOSES LAKE     MOSUNNY   63  29  27 W16G22    29.69F                  
PASCO          PTSUNNY   60  41  49 SW20      29.76F                  
HERMISTON, OR  LGT RAIN  53  45  74 W12G28    29.79S                  
$$

WAZ036>038-270000-
NORTHEAST WASHINGTON
  
CITY           SKY/WX    TMP DP  RH WIND       PRES   REMARKS
SPOKANE GEIGER CLOUDY    54  33  45 W25       29.65F                  
SPOKANE FELTS  CLOUDY    56  35  45 SW18G25   29.65F                  
FAIRCHILD AFB  CLOUDY    54  34  47 SW21G30   29.65F                  
COEURDALENE,ID PTSUNNY   52  36  54 SW18      29.66F                  
DEER PARK      CLOUDY    55  30  38 SW14      29.64F                  
$$

WAZ029>033-270000-
SOUTHEAST WASHINGTON
  
CITY           SKY/WX    TMP DP  RH WIND       PRES   REMARKS
PULLMAN        PTSUNNY   46  37  71 SW10      29.74F                  
LEWISTON, ID   LGT RAIN  47  42  83 NW9       29.75S                  
WALLA WALLA    PTSUNNY   51  45  79 S3        29.79S                  
PENDLETON, OR  CLOUDY    54  42  64 W23G31    29.78F                  
$$
  

Return to Home page


Western Regional Climate Center, wrcc@dri.edu